Location: Valley View Observatory
(41.0081°N, 76.5874°W)
Time: 17:10:38
(UTC-05:00)

Daily predictions for brighter satellites

Satellite Brightness Start Highest point End
(mag) Time Altitude Azimuth Time Altitude Azimuth Time Altitude Azimuth
Meteor 1-21 Rocket 4.4 17:26:59 10° S 17:32:52 75° E 17:38:45 10° NNE
Cosmos 1408 Rocket 3.8 17:31:28 10° S 17:35:55 79° W 17:40:22 10° N
USA 116 3.2 17:35:32 10° NNE 17:38:47 88° WNW 17:41:52 10° SSW
CZ-4 R/B 4.5 17:35:13 10° SSE 17:39:18 59° ENE 17:43:23 10° N
Cosmos 389 Rocket 2.8 17:39:36 10° NNW 17:43:11 73° W 17:46:43 10° S
Atlas Centaur 2 4.1 17:39:31 10° WSW 17:43:12 18° SSW 17:46:23 10° SSE
Cosmos 2333 Rocket 2.8 17:38:24 10° S 17:43:33 38° ESE 17:48:44 10° NE
COSMOS 2441 4.4 17:39:25 10° SSE 17:44:14 63° ENE 17:49:03 10° N
Cosmos 2058 4.3 17:41:31 10° SE 17:44:19 18° E 17:47:08 10° NE
Cosmos 1763 Rocket 3.5 17:41:20 10° SSW 17:46:34 86° ESE 17:51:46 10° NNE
CORIOLIS 4.2 17:42:49 10° SSE 17:48:09 87° WSW 17:53:33 10° NNW
Tsikada Rocket 4.3 17:46:56 10° SSW 17:53:17 75° W 17:59:44 10° N
BREEZE-M DEB (TANK) 4.3 17:51:17 10° WNW 17:54:05 41° SSW 18:01:08 10° SE
Cosmos 2219 Rocket 2.2 17:51:32 10° S 17:57:06 65° ESE 18:02:41 10° NNE
Cosmos 1743 Rocket 3.6 17:53:29 10° S 17:57:57 84° E 18:02:28 10° N
Cosmos 2278 Rocket 2.5 17:57:13 10° NNW 18:02:37 43° ENE 18:08:00 10° SE
Cosmos 1328 Rocket 3.7 17:59:10 10° N 18:03:38 81° W 18:08:04 10° S
Cosmos 540 Rocket 3.8 18:02:25 10° S 18:07:19 45° ESE 18:12:14 10° NNE
Cosmos 1340 Rocket 3.9 18:04:19 10° SE 18:07:30 24° E 18:09:40 15° NE
USA 215 3.3 18:01:20 10° ESE 18:07:46 61° NE 18:14:12 10° NW
Cosmos 2151 3.1 18:05:38 10° SSE 18:09:41 48° E 18:13:45 10° NNE
Cosmos 1515 Rocket 3.6 18:06:03 10° N 18:10:33 88° E 18:14:59 10° S
Cosmos 332 Rocket 3.9 18:05:57 10° SSW 18:10:45 79° WNW 18:15:38 10° NNE
SKYMED 2 3.5 18:09:21 10° NNE 18:13:42 78° ESE 18:18:02 10° S
Cosmos 1844 3.7 18:07:57 10° NNW 18:13:45 89° ENE 18:19:33 10° SSE
Abrixas 4.0 18:12:46 10° S 18:15:03 21° SE 18:15:50 19° ESE
SL-14 R/B 3.3 18:12:30 10° S 18:16:20 56° E 18:20:13 10° NNE
Cosmos 1805 Rocket 4.5 18:13:43 10° SSE 18:17:28 27° E 18:19:55 17° NE
Cosmos 1674 4.4 18:14:45 10° SW 18:18:15 34° WNW 18:21:48 10° N
Thor Agena Rocket 4.5 18:13:30 10° N 18:18:35 51° WNW 18:23:34 10° SW
Cosmos 1626 4.0 18:16:39 10° SE 18:17:50 15° ESE 18:17:50 15° ESE
Cosmos 1151 Rocket 2.9 18:15:56 10° N 18:20:12 76° E 18:24:29 10° SSE
Cosmos 1634 Rocket 4.0 18:14:15 10° N 18:20:28 89° W 18:26:38 10° S
Cosmos 1484 Rocket 3.3 18:17:43 10° S 18:21:35 63° W 18:25:32 10° NNW
DMSP B5D1-3 4.4 18:18:40 10° NNE 18:23:45 70° ESE 18:28:49 10° S
COSMOS 2428 3.8 18:18:54 10° SW 18:24:20 44° WNW 18:29:47 10° NNE
Cosmos 1125 Rocket 3.4 18:19:15 10° NNW 18:24:29 76° ENE 18:29:40 10° SSE
NOAA 12 4.1 18:19:23 10° SSE 18:24:29 56° ENE 18:29:38 10° N
Cosmos 1500 Rocket 3.9 18:20:40 10° SSW 18:24:57 68° W 18:29:19 10° N
Cosmos 2237 Rocket 2.1 18:22:07 10° SSW 18:27:42 70° ESE 18:33:01 12° NNE
BREEZE-M DEB (TANK) 4.2 18:23:54 10° NW 18:30:31 39° WSW 18:33:26 10° SSE
ALOS 3.0 18:27:13 10° SE 18:31:14 29° ENE 18:35:16 10° N
SL-16 R/B 2.9 18:27:31 10° SSE 18:32:27 32° ESE 18:34:21 26° ENE
Cosmos 44 3.4 18:27:56 10° SSW 18:33:12 75° ESE 18:36:41 21° NE
Cosmos 1300 2.8 18:30:51 10° N 18:34:41 76° W 18:38:30 10° S
Spot 2 Rocket 4.1 18:30:41 10° SE 18:35:07 32° ENE 18:39:33 10° N
Cosmos 1726 2.5 18:33:02 10° NNW 18:36:48 68° W 18:40:31 10° S
Cosmos 371 Rocket 4.0 18:36:31 10° SW 18:41:13 54° WNW 18:45:57 10° N
Sich 1 3.9 18:37:36 10° SSE 18:40:52 30° ESE 18:40:52 30° ESE
Cosmos 2297 4.0 18:36:11 10° N 18:41:36 42° ENE 18:44:55 22° ESE
NOSS 0 Rocket 4.0 18:36:24 10° SSW 18:42:37 79° WNW 18:48:47 10° NNE
BREEZE-M DEB (TANK) 1.7 18:40:42 10° SW 18:43:04 75° SE 18:43:04 75° SE
Lacrosse 5 rocket 1.5 18:39:45 10° NNW 18:43:24 42° NE 18:43:38 42° NE
Cosmos 1633 Rocket 4.4 18:40:44 10° SSE 18:42:54 23° SE 18:42:54 23° SE
SL-19 R/B 4.4 18:39:02 10° SE 18:44:49 54° ENE 18:50:19 10° N
OTV 4 1.8 18:46:21 10° WSW 18:49:01 30° SSW 18:49:25 29° S
FREGAT/IRIS 4.4 18:46:22 10° SSE 18:52:41 - N 18:47:34 22° SSE
CENTAUR R/B 3.9 18:46:34 10° WSW 18:52:11 34° NW 18:58:27 10° NNE
Resurs 01 Rocket 2.1 18:54:23 41° NE 18:54:23 41° NE 18:57:55 10° N
Meteor 1-11 4.3 18:48:23 10° SSW 18:54:02 79° W 18:59:49 10° N
Cosmos 2084 4.3 18:52:51 10° WSW 18:56:31 39° NW 18:58:06 26° N
Meteor 1-28 Rocket 4.5 18:55:38 10° N 18:59:07 39° WNW 19:02:36 10° SW
Cosmos 44 Rocket 4.4 18:56:12 10° WSW 19:01:03 42° NW 19:04:26 18° NNE
COSMO-SKYMED 1 4.4 18:57:45 10° N 19:01:35 31° WNW 19:05:23 10° SW
CZ-3A R/B 2.7 18:58:26 10° NW 19:03:08 64° NE 19:04:52 40° ESE
Lacrosse 5 4.0 19:00:47 10° NW 19:03:21 14° N 19:04:47 12° N
Aureole 2 Rocket 2.8 19:00:16 10° SSW 19:03:51 71° WNW 19:04:38 52° N
Cosmos 1707 Rocket 3.3 19:01:30 10° N 19:05:51 74° E 19:10:09 10° SSE
FengYun 1-2 T 4.1 19:04:16 10° SSE 19:09:49 75° ENE 19:15:21 10° N
Cosmos 1461 3.6 19:07:31 10° SSW 19:10:31 40° S 19:10:31 40° S
SJ-6B 3.6 19:08:51 10° S 19:12:48 53° W 19:16:51 10° NNW
Cosmos 1666 Rocket 3.6 19:11:39 10° S 19:15:25 67° S 19:15:25 67° S
FENGYUN 3A 3.5 19:19:08 10° SSE 19:24:29 87° WSW 19:29:54 10° NNW
Cosmos 304 Rocket 4.1 19:22:24 10° SSW 19:27:11 64° WNW 19:28:08 51° NNW
Cosmos 2333 Rocket 3.8 19:22:53 10° WSW 19:27:51 31° WNW 19:32:21 12° N
Cosmos 1703 4.4 19:25:11 10° SSW 19:28:53 43° W 19:29:16 41° WNW
Nadezhda 4 Rocket 4.0 19:26:51 10° S 19:33:04 78° W 19:39:25 10° N
Cosmos 2219 Rocket 4.4 19:37:27 10° W 19:41:32 20° NW 19:45:40 10° N
Cosmos 2278 Rocket 4.2 19:41:45 10° NW 19:46:26 27° WSW 19:51:06 10° SSW
Cosmos 1092 Rocket 4.0 19:44:03 10° S 19:50:22 80° W 19:51:46 57° N
USA 215 4.3 19:45:33 13° SSE 19:50:55 40° SW 19:57:00 10° WNW
ALOS 4.1 20:04:37 10° SSW 20:08:37 28° W 20:12:38 10° NW
Cosmos 2237 Rocket 4.5 20:08:23 10° W 20:12:19 19° NW 20:14:53 15° NNW
SL-16 R/B 3.5 20:11:14 10° SW 20:16:19 37° WNW 20:16:19 37° WNW
Resurs 01 Rocket 4.5 20:31:56 14° WNW 20:31:56 14° WNW 20:33:12 10° NW
